TimeAKDT,TemperatureF,Dew PointF,Humidity,Sea Level PressureIn,VisibilityMPH,Wind Direction,Wind SpeedMPH,Gust SpeedMPH,PrecipitationIn,Events,Conditions,WindDirDegrees,DateUTC
12:53 AM,18.0,15.1,88,29.98,9.0,Calm,Calm,-,0.00,Snow,Light Snow,0,2013-03-30 08:53:00
1:53 AM,18.0,15.1,88,29.99,9.0,Calm,Calm,-,0.00,Snow,Light Snow,0,2013-03-30 09:53:00
2:53 AM,17.1,14.0,88,30.01,10.0,Calm,Calm,-,0.00,,Overcast,0,2013-03-30 10:53:00
3:53 AM,17.1,12.9,84,30.02,10.0,Calm,Calm,-,N/A,,Overcast,0,2013-03-30 11:53:00
4:36 AM,17.6,12.2,79,30.02,10.0,East,6.9,-,N/A,,Overcast,90,2013-03-30 12:36:00
4:53 AM,17.1,12.9,84,30.03,10.0,East,6.9,-,N/A,,Overcast,80,2013-03-30 12:53:00
5:53 AM,16.0,12.9,88,30.05,10.0,East,6.9,-,N/A,,Overcast,90,2013-03-30 13:53:00
6:39 AM,15.8,12.2,86,30.06,10.0,East,5.8,-,N/A,,Overcast,90,2013-03-30 14:39:00
6:53 AM,16.0,12.9,88,30.06,10.0,East,6.9,-,N/A,,Overcast,90,2013-03-30 14:53:00
7:53 AM,16.0,12.9,88,30.09,10.0,East,6.9,-,N/A,,Overcast,80,2013-03-30 15:53:00
8:51 AM,15.8,12.2,86,30.08,10.0,East,6.9,-,N/A,,Overcast,80,2013-03-30 16:51:00
8:53 AM,16.0,12.9,88,30.09,10.0,East,6.9,-,N/A,,Overcast,90,2013-03-30 16:53:00
9:46 AM,15.8,14.0,93,30.11,10.0,East,5.8,-,N/A,,Overcast,80,2013-03-30 17:46:00
9:53 AM,16.0,14.0,92,30.11,10.0,East,6.9,-,N/A,,Overcast,100,2013-03-30 17:53:00
10:53 AM,16.0,15.1,96,30.13,10.0,East,6.9,-,N/A,,Overcast,100,2013-03-30 18:53:00
11:26 AM,17.6,15.8,93,30.13,10.0,East,8.1,-,N/A,,Overcast,90,2013-03-30 19:26:00
11:53 AM,17.1,15.1,92,30.14,10.0,East,9.2,-,N/A,,Overcast,80,2013-03-30 19:53:00
12:53 PM,17.1,15.1,92,30.15,10.0,East,9.2,-,N/A,,Overcast,80,2013-03-30 20:53:00
1:53 PM,18.0,16.0,92,30.16,3.0,SE,5.8,-,N/A,,Overcast,140,2013-03-30 21:53:00
2:53 PM,15.1,14.0,95,30.18,6.0,South,5.8,-,N/A,,Overcast,170,2013-03-30 22:53:00
3:53 PM,16.0,12.9,88,30.19,10.0,SSE,6.9,-,N/A,,Overcast,150,2013-03-30 23:53:00
4:53 PM,15.1,12.0,88,30.20,10.0,SSE,8.1,-,N/A,,Mostly Cloudy,150,2013-03-31 00:53:00
5:53 PM,15.1,10.9,84,30.20,10.0,SE,6.9,-,N/A,,Overcast,140,2013-03-31 01:53:00
6:53 PM,15.1,10.9,84,30.22,7.0,SSE,5.8,-,0.00,Snow,Light Snow,150,2013-03-31 02:53:00
7:33 PM,14.0,10.4,86,30.21,8.0,Calm,Calm,-,0.00,Snow,Light Snow,0,2013-03-31 03:33:00
7:53 PM,15.1,10.9,84,30.22,8.0,East,4.6,-,0.00,Snow,Light Snow,80,2013-03-31 03:53:00
8:53 PM,14.0,10.9,88,30.22,8.0,East,4.6,-,0.00,Snow,Light Snow,90,2013-03-31 04:53:00
9:53 PM,12.9,10.0,88,30.23,6.0,ENE,4.6,-,0.00,Snow,Light Snow,70,2013-03-31 05:53:00
10:53 PM,12.9,10.0,88,30.25,9.0,NE,6.9,-,0.00,,Overcast,50,2013-03-31 06:53:00
11:53 PM,12.0,10.0,92,30.25,8.0,NE,5.8,-,0.00,Snow,Light Snow,50,2013-03-31 07:53:00